Coldwater, MI

3:30 PM EST on December 17, 2017 (GMT -0500)
Branch County Memorial

Weather History for KOEB - September, 2012

Change the Weather History Date:

Monday, September 24, 2012

  Actual Average (KJYM) Record (KJYM)
Temperature  
Mean Temperature 50 °F -  
Max Temperature 62 °F 66 °F 89 °F (2017)
Min Temperature 37 °F 42 °F 27 °F (1976)
Degree Days  
Heating Degree Days 16    
Moisture  
Dew Point 36 °F    
Average Humidity 60    
Maximum Humidity 91    
Minimum Humidity 32    
Precipitation  
Precipitation 0.00 in - - ()
Sea Level Pressure  
Sea Level Pressure 30.10 in    
Wind  
Wind Speed 7 mph (SW)    
Max Wind Speed 21 mph    
Max Gust Speed 26 mph    
Visibility 10 miles    
Events      
Averages and records for this station are not official NWS values.
T = Trace of Precipitation, MM = Missing Value Source: NWS Daily Summary

Daily Weather History Graph

Daily Weather History Graph

Search for Another Location

Airport or City:

Trip Planner

Search our weather history database for the weather conditions in past years. The results will help you decide how hot, cold, wet, or windy it might be!

Date:

Astronomy

Sep. 24, 2012 Rise Set
Actual Time 7:30 AM EDT 7:33 PM EDT
Civil Twilight 7:02 AM EDT 8:00 PM EDT
Nautical Twilight 6:29 AM EDT 8:33 PM EDT
Astronomical Twilight 5:56 AM EDT 9:06 PM EDT
Moon 4:22 PM EDT (9/24) 1:41 AM EDT (9/24)
Length of Visible Light 12h 58m
Length of Day
12h 02m
Waxing Gibbous, 70% of the Moon is Illuminated
Sep 24
Waxing Gibbous
Sep 29
Full
Oct 8
Last Quarter
Oct 15
New
Oct 21
First Quarter

Hourly Weather History & Observations

Time (EDT) Temp. Windchill Dew Point Humidity Pressure Visibility Wind Dir Wind Speed Gust Speed Precip Events Conditions
12:15 AM 41.0 °F 39.0 °F 37.8 °F 88% 30.22 in 10.0 mi SW 3.5 mph - N/A   Scattered Clouds
12:34 AM 40.5 °F 38.4 °F 37.2 °F 88% 30.22 in 10.0 mi SW 3.5 mph - N/A   Scattered Clouds
12:55 AM 40.8 °F 38.8 °F 37.6 °F 88% 30.21 in 10.0 mi SW 3.5 mph - N/A   Clear
1:15 AM 41.7 °F - 38.1 °F 87% 30.21 in 10.0 mi Calm Calm - N/A   Mostly Cloudy
1:34 AM 41.9 °F - 38.3 °F 87% 30.21 in 10.0 mi Calm Calm - N/A   Mostly Cloudy
1:55 AM 40.3 °F - 36.9 °F 88% 30.21 in 10.0 mi Calm Calm - N/A   Clear
2:15 AM 39.4 °F - 36.5 °F 89% 30.21 in 10.0 mi Calm Calm - N/A   Clear
2:34 AM 39.4 °F - 36.5 °F 89% 30.21 in 10.0 mi Calm Calm - N/A   Clear
2:55 AM 39.2 °F - 36.7 °F 91% 30.21 in 10.0 mi Calm Calm - N/A   Clear
3:14 AM 38.7 °F - 35.8 °F 89% 30.21 in 10.0 mi Calm Calm - N/A   Clear
3:35 AM 38.3 °F 35.9 °F 35.1 °F 88% 30.21 in 10.0 mi SW 3.5 mph - N/A   Clear
3:55 AM 37.6 °F - 34.9 °F 90% 30.21 in 10.0 mi Calm Calm - N/A   Clear
4:14 AM 39.0 °F 35.7 °F 36.3 °F 90% 30.20 in 10.0 mi SW 4.6 mph - N/A   Mostly Cloudy
4:35 AM 40.8 °F 37.8 °F 36.5 °F 85% 30.20 in 10.0 mi SW 4.6 mph - N/A   Mostly Cloudy
4:55 AM 40.1 °F 36.9 °F 36.7 °F 88% 30.20 in 10.0 mi SW 4.6 mph - N/A   Overcast
5:15 AM 40.6 °F 37.5 °F 37.4 °F 88% 30.20 in 10.0 mi SSW 4.6 mph - N/A   Overcast
5:55 AM 40.3 °F 37.1 °F 35.8 °F 84% 30.19 in 10.0 mi SSW 4.6 mph - N/A   Scattered Clouds
6:15 AM 40.1 °F 38.0 °F 35.6 °F 84% 30.19 in 10.0 mi SW 3.5 mph - N/A   Clear
6:35 AM 39.0 °F 35.7 °F 34.9 °F 85% 30.19 in 10.0 mi SW 4.6 mph - N/A   Clear
6:55 AM 38.7 °F 34.3 °F 35.2 °F 87% 30.19 in 10.0 mi SW 5.8 mph - N/A   Clear
7:15 AM 38.3 °F 34.8 °F 35.1 °F 88% 30.20 in 10.0 mi SW 4.6 mph - N/A   Clear
7:35 AM 38.3 °F 34.8 °F 35.1 °F 88% 30.20 in 10.0 mi WSW 4.6 mph - N/A   Clear
7:55 AM 38.3 °F 34.8 °F 35.6 °F 90% 30.20 in 10.0 mi SW 4.6 mph - N/A   Clear
8:15 AM 40.3 °F 35.5 °F 36.5 °F 86% 30.20 in 10.0 mi SW 6.9 mph - N/A   Clear
8:35 AM 41.5 °F 37.8 °F 37.2 °F 85% 30.20 in 10.0 mi SW 5.8 mph - N/A   Clear
8:55 AM 43.3 °F 38.6 °F 37.9 °F 81% 30.20 in 10.0 mi SW 8.1 mph - N/A   Clear
9:15 AM 45.0 °F 40.6 °F 38.8 °F 79% 30.20 in 10.0 mi SW 8.1 mph - N/A   Clear
9:35 AM 47.1 °F - 39.6 °F 75% 30.20 in 10.0 mi SW 6.9 mph - N/A   Clear
9:55 AM 48.9 °F - 39.7 °F 71% 30.20 in 10.0 mi SW 10.4 mph - N/A   Clear
10:15 AM 51.1 °F - 39.7 °F 65% 30.20 in 10.0 mi SW 10.4 mph - N/A   Clear
10:35 AM 52.9 °F - 39.7 °F 61% 30.19 in 10.0 mi SW 15.0 mph 19.6 mph N/A   Clear
10:55 AM 53.6 °F - 39.4 °F 59% 30.18 in 10.0 mi SW 12.7 mph - N/A   Clear
11:15 AM 55.0 °F - 39.0 °F 55% 30.18 in 10.0 mi SW 12.7 mph 17.3 mph N/A   Clear
11:40 AM 56.1 °F - 38.3 °F 51% 30.17 in 10.0 mi SW 16.1 mph 20.7 mph N/A   Clear
11:54 AM 57.0 °F - 37.9 °F 49% 30.16 in 10.0 mi WSW 15.0 mph 21.9 mph N/A   Clear
12:15 PM 57.6 °F - 37.0 °F 46% 30.16 in 10.0 mi WSW 18.4 mph 21.9 mph N/A   Clear
12:35 PM 57.6 °F - 36.5 °F 45% 30.14 in 10.0 mi SW 15.0 mph 26.5 mph N/A   Clear
12:54 PM 58.8 °F - 36.9 °F 44% 30.13 in 10.0 mi SW 16.1 mph 20.7 mph N/A   Clear
1:15 PM 59.0 °F - 36.1 °F 42% 30.12 in 10.0 mi WSW 16.1 mph 24.2 mph N/A   Clear
1:35 PM 59.4 °F - 36.9 °F 43% 30.11 in 10.0 mi WSW 12.7 mph 21.9 mph N/A   Clear
1:54 PM 59.9 °F - 35.2 °F 40% 30.11 in 10.0 mi SW 16.1 mph 24.2 mph N/A   Clear
2:15 PM 60.1 °F - 35.4 °F 40% 30.09 in 10.0 mi WSW 11.5 mph 23.0 mph N/A   Clear
2:35 PM 60.8 °F - 34.7 °F 38% 30.08 in 10.0 mi SW 16.1 mph 25.3 mph N/A   Clear
2:54 PM 61.7 °F - 36.0 °F 38% 30.07 in 10.0 mi WSW 15.0 mph 23.0 mph N/A   Clear
3:15 PM 61.2 °F - 34.2 °F 36% 30.06 in 10.0 mi SW 12.7 mph 19.6 mph N/A   Clear
3:35 PM 61.2 °F - 33.4 °F 35% 30.05 in 10.0 mi WSW 11.5 mph 20.7 mph N/A   Clear
3:55 PM 61.7 °F - 33.6 °F 35% 30.03 in 10.0 mi WSW 20.7 mph 24.2 mph N/A   Clear
4:15 PM 61.9 °F - 32.9 °F 34% 30.02 in 10.0 mi WSW 18.4 mph 24.2 mph N/A   Clear
4:34 PM 62.2 °F - 33.4 °F 34% 30.01 in 10.0 mi SW 13.8 mph 20.7 mph N/A   Clear
4:55 PM 62.4 °F - 33.4 °F 34% 30.01 in 10.0 mi SW 16.1 mph 23.0 mph N/A   Clear
5:14 PM 62.2 °F - 32.4 °F 33% 29.99 in 10.0 mi SW 13.8 mph 23.0 mph N/A   Clear
5:35 PM 62.4 °F - 32.5 °F 33% 29.99 in 10.0 mi WSW 16.1 mph 20.7 mph N/A   Clear
5:55 PM 61.9 °F - 32.0 °F 33% 29.99 in 10.0 mi WSW 15.0 mph 21.9 mph N/A   Clear
6:14 PM 61.7 °F - 31.3 °F 32% 29.98 in 10.0 mi WSW 15.0 mph 19.6 mph N/A   Clear
6:35 PM 60.8 °F - 32.9 °F 35% 29.97 in 10.0 mi SW 9.2 mph - N/A   Clear
6:55 PM 59.7 °F - 32.5 °F 36% 29.97 in 10.0 mi SW 9.2 mph - N/A   Clear
7:15 PM 57.9 °F - 33.3 °F 39% 29.96 in 10.0 mi SSW 4.6 mph - N/A   Clear
7:35 PM 58.1 °F - 32.2 °F 38% 29.96 in 10.0 mi South 4.6 mph - N/A   Clear
7:54 PM 57.2 °F - 33.1 °F 40% 29.95 in 10.0 mi South 4.6 mph - N/A   Clear
8:15 PM 56.7 °F - 33.6 °F 42% 29.94 in 10.0 mi South 6.9 mph - N/A   Clear
8:35 PM 56.3 °F - 33.8 °F 43% 29.94 in 10.0 mi SSW 6.9 mph - N/A   Clear
8:54 PM 55.9 °F - 34.0 °F 44% 29.94 in 10.0 mi SSW 6.9 mph - N/A   Clear
9:15 PM 56.3 °F - 33.8 °F 43% 29.95 in 10.0 mi SSW 10.4 mph - N/A   Clear
9:35 PM 56.5 °F - 33.3 °F 42% 29.95 in 10.0 mi SSW 9.2 mph 17.3 mph N/A   Clear
9:54 PM 55.8 °F - 33.8 °F 44% 29.95 in 10.0 mi SSW 9.2 mph - N/A   Clear
10:15 PM 55.9 °F - 33.8 °F 43% 29.96 in 10.0 mi SSW 9.2 mph 16.1 mph N/A   Clear
10:35 PM 55.4 °F - 34.7 °F 46% 29.96 in 10.0 mi SW 10.4 mph 17.3 mph N/A   Clear
10:54 PM 54.7 °F - 35.6 °F 49% 29.96 in 10.0 mi SW 11.5 mph 16.1 mph N/A   Clear
11:15 PM 54.5 °F - 36.1 °F 50% 29.96 in 10.0 mi SW 8.1 mph - N/A   Clear
11:35 PM 54.0 °F - 36.5 °F 52% 29.96 in 10.0 mi SW 8.1 mph - N/A   Clear
11:55 PM 53.8 °F - 36.5 °F 52% 29.96 in 10.0 mi SW 6.9 mph - N/A   Clear